Torna al catalogo

COSMOS 2251 DEB

AttivoLEO
NORAD 33908·DEBRIS·🇷🇺 Russia

Lanciato Jun 16, 1993 da Plesetsk Cosmodrome

Loading…

Prossimi Passaggi (prossime 24 ore)

TLE

AggiornatoSource: Space-Track

Epoca: Sep 14, 2026, 11:01 UTC

1 33908U 93036DM  26257.45906006  .00001858  00000-0  86766-3 0  9994
2 33908  73.8340  75.6408 0219928  49.5648 312.4441 14.09116237893550

Traccia COSMOS 2251 DEB in tempo reale con AllMySat

Download on the App Store